Simultaneous Nadir Overpasses (SNOs) Predictions

Prediction of SNOs between LANDSAT-8 and NPP Satellite Orbit:

Table of predicted SNOs for the next 14.0 days since TLE Epoch: 7/6/2014
Index Date (LANDSAT-8) Time (LANDSAT-8) Lat,Lon (LANDSAT-8) SZA (LANDSAT-8 ) Date (NPP) Time (NPP) Lat,Lon (NPP) SZA (NPP ) Distance(km) Time Diff (sec)
1 07/06/2014 09:44:52 -70.87,-148.71 131.86 07/06/2014 09:43:39 -70.93,-149.38 131.77 25.00 73
2 07/06/2014 10:34:22 70.61, 18.53 47.89 07/06/2014 10:34:19 70.60, 18.47 47.89 2.30 3
3 07/06/2014 11:23:52 -70.50,-174.00 132.21 07/06/2014 11:25:01 -70.51,-174.06 132.21 2.57 69
4 07/09/2014 02:01:26 -70.68, -33.13 131.75 07/09/2014 02:00:34 -70.66, -33.16 131.76 3.28 52
5 07/09/2014 02:50:54 70.52, 134.28 48.11 07/09/2014 02:51:18 70.54, 134.33 48.13 2.87 24
6 07/09/2014 03:40:39 -69.59, -59.41 132.77 07/09/2014 03:41:44 -69.60, -56.90 132.85 97.17 65
7 07/11/2014 17:28:14 71.45, -83.66 49.34 07/11/2014 17:27:07 71.53, -86.21 49.50 90.30 67
8 07/11/2014 18:17:57 -70.64, 82.69 131.44 07/11/2014 18:17:34 -70.65, 82.62 131.43 2.57 23
9 07/11/2014 19:07:24 70.54,-109.83 48.46 07/11/2014 19:08:18 70.54,-109.89 48.46 2.39 54
10 07/14/2014 09:44:57 70.69, 31.01 48.99 07/14/2014 09:43:50 70.70, 30.99 49.01 0.76 67
11 07/14/2014 10:34:27 -70.59,-161.52 131.11 07/14/2014 10:34:32 -70.59,-161.52 131.10 0.74 5
12 07/14/2014 11:24:00 70.15, 5.49 48.49 07/14/2014 11:25:10 70.17, 6.46 48.47 36.96 70
13 07/17/2014 02:01:27 70.67, 146.86 49.41 07/17/2014 02:00:49 70.65, 146.84 49.39 2.92 38
14 07/17/2014 02:50:57 -70.57, -45.66 130.69 07/17/2014 02:51:31 -70.54, -45.67 130.72 3.15 34
15 07/19/2014 17:28:23 -71.13, 95.81 129.69 07/19/2014 17:27:13 -71.17, 94.42 129.60 50.02 70
16 07/19/2014 18:17:58 70.59, -97.39 49.80 07/19/2014 18:17:48 70.60, -97.31 49.81 3.35 10
17 07/19/2014 19:07:27 -70.54, 70.17 130.25 07/19/2014 19:08:31 -70.55, 70.09 130.24 3.04 64




NCC Satellite Simultaneous Nadir Overpasses (SNOs) Prediction Service
